Location: Freistadt
(48.5112°N, 14.5013°E)
Time: 02:21:33
(UTC+01:00)

CAPELLA-10 (WHITNEY) - Visible Passes

Search period start: 07 December 2023 00:00
Search period end: 17 December 2023 00:00
Orbit: 574 x 586 km, 44.0° (Epoch: 06 December)

Date Brightness Start Highest point End Pass type
(mag) Time Alt. Az. Time Alt. Az. Time Alt. Az.
14 Dec ? 18:38:43 10° S 18:40:09 15° S 18:40:09 15° S visible
15 Dec ? 18:41:51 10° SSW 18:44:05 20° S 18:44:05 20° S visible
16 Dec ? 18:45:15 10° SW 18:47:58 26° S 18:47:58 26° S visible
